| time (UTC) | temp F | wind direction | speed knots | gust knots | rain 1hr in | rain 24hr in | rain mn in | humidity % | barometer mb |
| 20260503013004 | 46 | 140 | 4.3 | 12.2 | 0.00 | 0.00 | 0.00 | 58 | 1017.6 |
| 20260503012004 | 46 | 144 | 7.0 | 13.9 | 0.00 | 0.00 | 0.00 | 57 | 1017.5 |
| 20260503010003 | 47 | 146 | 7.0 | 8.7 | 0.00 | 0.00 | 0.00 | 57 | 1017.7 |
| 20260503005003 | 48 | 138 | 7.0 | 15.6 | 0.00 | 0.00 | 0.00 | 55 | 1017.4 |
| 20260503004003 | 49 | 140 | 6.1 | 11.3 | 0.00 | 0.00 | 0.00 | 54 | 1017.6 |
| 20260503003004 | 49 | 154 | 6.1 | 10.4 | 0.00 | 0.00 | 0.00 | 53 | 1017.6 |
| 20260503001003 | 51 | 137 | 7.8 | 13.0 | 0.00 | 0.00 | 0.00 | 52 | 1017.6 |
| 20260503000003 | 51 | 141 | 5.2 | 15.6 | 0.00 | 0.00 | 0.00 | 52 | 1017.4 |
| 20260502235003 | 52 | 140 | 6.1 | 14.8 | 0.00 | 0.00 | 0.00 | 50 | 1017.9 |
| 20260502234004 | 53 | 138 | 8.7 | 17.4 | 0.00 | 0.00 | 0.00 | 48 | 1017.7 |
| 20260502231003 | 55 | 145 | 7.8 | 13.9 | 0.00 | 0.00 | 0.00 | 50 | 1017.9 |
| 20260502230003 | 55 | 141 | 7.0 | 14.8 | 0.00 | 0.00 | 0.00 | 49 | 1018.1 |
| 20260502225003 | 58 | 152 | 7.8 | 14.8 | 0.00 | 0.00 | 0.00 | 37 | 1018.2 |
| 20260502224004 | 58 | 172 | 6.1 | 11.3 | 0.00 | 0.00 | 0.00 | 34 | 1018.3 |
| 20260502222004 | 58 | 211 | 5.2 | 13.0 | 0.00 | 0.00 | 0.00 | 34 | 1018.4 |
| 20260502221004 | 58 | 176 | 3.5 | 10.4 | 0.00 | 0.00 | 0.00 | 34 | 1018.4 |
| 20260502220004 | 58 | 184 | 5.2 | 13.0 | 0.00 | 0.00 | 0.00 | 34 | 1018.8 |
| 20260502215003 | 59 | 194 | 5.2 | 13.0 | 0.00 | 0.00 | 0.00 | 34 | 1018.8 |
| 20260502213004 | 58 | 194 | 4.3 | 7.8 | 0.00 | 0.00 | 0.00 | 36 | 1019.1 |
| 20260502212004 | 57 | 182 | 4.3 | 11.3 | 0.00 | 0.00 | 0.00 | 35 | 1019.1 |
| 20260502211003 | 57 | 172 | 3.5 | 11.3 | 0.00 | 0.00 | 0.00 | 36 | 1019.3 |
| 20260502210004 | 58 | 202 | 7.8 | 11.3 | 0.00 | 0.00 | 0.00 | 35 | 1019.4 |
| 20260502205004 | 58 | 131 | 5.2 | 8.7 | 0.00 | 0.00 | 0.00 | 37 | 1019.5 |
| 20260502202004 | 58 | 295 | 3.5 | 10.4 | 0.00 | 0.00 | 0.00 | 36 | 1020.3 |
| 20260502201004 | 58 | 190 | 6.1 | 13.0 | 0.00 | 0.00 | 0.00 | 36 | 1020.3 |
| 20260502200004 | 56 | 305 | 6.1 | 15.6 | 0.00 | 0.00 | 0.00 | 38 | 1020.7 |
| 20260502194003 | 55 | 250 | 4.3 | 17.4 | 0.00 | 0.00 | 0.00 | 35 | 1021.0 |
| 20260502193003 | 57 | 279 | 6.1 | 13.0 | 0.00 | 0.00 | 0.00 | 35 | 1021.1 |
| 20260502191003 | 54 | 345 | 5.2 | 12.2 | 0.00 | 0.00 | 0.00 | 35 | 1021.6 |
| 20260502190004 | 54 | 309 | 4.3 | 25.2 | 0.00 | 0.00 | 0.00 | 38 | 1021.8 |
| 20260502185003 | 54 | 279 | 4.3 | 18.2 | 0.00 | 0.00 | 0.00 | 37 | 1021.7 |
| 20260502184004 | 53 | 295 | 2.6 | 11.3 | 0.00 | 0.00 | 0.00 | 36 | 1022.1 |
| 20260502183004 | 53 | 304 | 11.3 | 17.4 | 0.00 | 0.00 | 0.00 | 37 | 1022.3 |
| 20260502181004 | 53 | 276 | 4.3 | 15.6 | 0.00 | 0.00 | 0.00 | 37 | 1022.5 |
| 20260502164004 | 50 | 289 | 4.3 | 13.9 | 0.00 | 0.00 | 0.00 | 40 | 1023.5 |
| 20260502163004 | 51 | 116 | 5.2 | 8.7 | 0.00 | 0.00 | 0.00 | 41 | 1023.6 |
| 20260502162004 | 51 | 264 | 2.6 | 7.0 | 0.00 | 0.00 | 0.00 | 41 | 1023.9 |
| 20260502152004 | 48 | 248 | 2.6 | 7.0 | 0.00 | 0.00 | 0.00 | 43 | 1024.4 |
| 20260502151003 | 49 | 243 | 2.6 | 7.0 | 0.00 | 0.00 | 0.00 | 42 | 1024.6 |
| 20260502123004 | 36 | 150 | 0.9 | 5.2 | 0.00 | 0.00 | 0.00 | 76 | 1025.5 |
| 20260502122003 | 35 | 277 | 1.7 | 4.3 | 0.00 | 0.00 | 0.00 | 77 | 1025.5 |
| 20260502121004 | 35 | 14 | 2.6 | 5.2 | 0.00 | 0.00 | 0.00 | 82 | 1025.4 |
| 20260502115004 | 32 | 148 | 4.3 | 6.1 | 0.00 | 0.00 | 0.00 | 91 | 1025.4 |
| 20260502114003 | 30 | 180 | 2.6 | 5.2 | 0.00 | 0.00 | 0.00 | 95 | 1025.3 |
| 20260502113004 | 29 | 129 | 2.6 | 5.2 | 0.00 | 0.00 | 0.00 | 97 | 1025.3 |
| 20260502112003 | 29 | 107 | 4.3 | 7.0 | 0.00 | 0.01 | 0.00 | 97 | 1025.5 |
| 20260502111004 | 29 | 146 | 5.2 | 6.1 | 0.00 | 0.02 | 0.00 | 98 | 1025.0 |
| 20260502105003 | 28 | 144 | 1.7 | 4.3 | 0.00 | 0.02 | 0.00 | 98 | 1025.0 |
| 20260502104004 | 28 | 9 | 2.6 | 4.3 | 0.00 | 0.02 | 0.00 | 98 | 1025.1 |
| 20260502103003 | 28 | 61 | 1.7 | 6.1 | 0.00 | 0.02 | 0.00 | 98 | 1025.1 |
| 20260502102003 | 28 | 78 | 5.2 | 6.1 | 0.00 | 0.02 | 0.00 | 98 | 1025.1 |
| 20260502101003 | 28 | 147 | 1.7 | 6.1 | 0.00 | 0.02 | 0.00 | 98 | 1024.9 |
| 20260502091004 | 29 | 102 | 1.7 | 2.6 | 0.00 | 0.02 | 0.00 | 97 | 1024.9 |
| 20260502071004 | 33 | 193 | 1.7 | 4.3 | 0.00 | 0.05 | 0.00 | 90 | 1024.4 |
| 20260502070004 | 33 | 185 | 1.7 | 4.3 | 0.00 | 0.05 | 0.00 | 90 | 1024.3 |
| 20260502065004 | 33 | 174 | 1.7 | 4.3 | 0.00 | 0.06 | 0.00 | 90 | 1024.6 |
| 20260502064004 | 34 | 166 | 1.7 | 4.3 | 0.00 | 0.06 | 0.00 | 90 | 1024.6 |
| 20260502062004 | 34 | 179 | 2.6 | 4.3 | 0.00 | 0.06 | 0.00 | 89 | 1024.6 |
| 20260502061004 | 34 | 197 | 2.6 | 4.3 | 0.00 | 0.06 | 0.00 | 90 | 1024.6 |
| 20260502055004 | 33 | 194 | 1.7 | 2.6 | 0.00 | 0.06 | 0.00 | 90 | 1024.7 |
| 20260502053004 | 33 | 169 | 0.9 | 1.7 | 0.00 | 0.06 | 0.00 | 90 | 1024.5 |
| 20260502052004 | 34 | 169 | 0.9 | 1.7 | 0.00 | 0.06 | 0.00 | 89 | 1024.5 |
| 20260502051004 | 34 | 157 | 0.9 | 2.6 | 0.00 | 0.06 | 0.00 | 89 | 1024.5 |
| 20260502050003 | 33 | 166 | 1.7 | 2.6 | 0.00 | 0.06 | 0.00 | 89 | 1024.5 |
| 20260502045004 | 34 | 152 | 1.7 | 2.6 | 0.00 | 0.06 | 0.06 | 89 | 1024.5 |
| 20260502044004 | 34 | 166 | 1.7 | 4.3 | 0.00 | 0.06 | 0.06 | 89 | 1024.6 |
| 20260502043003 | 34 | 136 | 1.7 | 4.3 | 0.00 | 0.06 | 0.06 | 88 | 1024.2 |
| 20260502042004 | 34 | 142 | 1.7 | 5.2 | 0.00 | 0.06 | 0.06 | 87 | 1024.5 |
| 20260502041004 | 35 | 131 | 2.6 | 4.3 | 0.00 | 0.06 | 0.06 | 86 | 1024.5 |
| 20260502040004 | 35 | 137 | 2.6 | 4.3 | 0.00 | 0.06 | 0.06 | 85 | 1024.4 |
| 20260502035003 | 35 | 131 | 1.7 | 2.6 | 0.00 | 0.06 | 0.06 | 85 | 1024.5 |
| 20260502034003 | 35 | 144 | 0.9 | 1.7 | 0.00 | 0.06 | 0.06 | 86 | 1024.4 |
| 20260502033004 | 35 | 156 | 0.9 | 2.6 | 0.00 | 0.06 | 0.06 | 85 | 1024.5 |
| 20260502031003 | 34 | 105 | 0.9 | 1.7 | 0.00 | 0.09 | 0.06 | 86 | 1024.6 |
| 20260502030004 | 35 | 95 | 0.9 | 1.7 | 0.00 | 0.09 | 0.06 | 84 | 1024.6 |
| 20260502025004 | 35 | 122 | 1.7 | 1.7 | 0.00 | 0.09 | 0.06 | 82 | 1024.7 |
| 20260502024003 | 36 | 132 | 1.7 | 2.6 | 0.00 | 0.09 | 0.06 | 81 | 1024.5 |
| 20260502023004 | 36 | 116 | 1.7 | 2.6 | 0.00 | 0.09 | 0.06 | 80 | 1024.6 |
| 20260502022004 | 37 | 118 | 1.7 | 1.7 | 0.00 | 0.09 | 0.06 | 78 | 1024.7 |
| 20260502021004 | 37 | 101 | 1.7 | 2.6 | 0.00 | 0.09 | 0.06 | 76 | 1024.4 |
| 20260502020004 | 37 | 122 | 2.6 | 2.6 | 0.00 | 0.09 | 0.06 | 76 | 1024.4 |
| 20260502015004 | 37 | 93 | 1.7 | 1.7 | 0.00 | 0.09 | 0.06 | 73 | 1024.6 |
| 20260502014003 | 39 | 90 | 1.7 | 1.7 | 0.00 | 0.09 | 0.06 | 70 | 1024.3 |